This demonstration page uses our WeatherBlox Daily Observations layout. Learn more.

Left ArrowRight Arrow

44.8408, -93.29828

Hourly Observations for February 24, 2019

Temp ( °F °C ) Dew Point ( °F °C ) Humidity (%) Winds ( mph kmh ) Pressure ( in mb ) Visibility ( mi km ) Precip ( " mm )
12:53 am 00:53 Mostly Cloudy with Light Snow 28 -2.2 27 -2.8 96 96 NNW 15 24 29.57 1001 1 1 0.11 2.79
1:11 am 01:11 Cloudy with Light Snow 28 -2.2 26 -3.3 92 92 NW 16 26 29.59 1002 1 2 0.03 0.76
1:53 am 01:53 Cloudy with Light Snow 28 -2.2 25 -3.9 88 88 NW 18 30 29.57 1001 1 2 0.06 1.52
2:27 am 02:27 Windy with Snow Likely 27 -2.8 24 -4.4 89 89 NW 20 31 29.59 1002 1 2 0.02 0.51
2:35 am 02:35 Windy with Snow Likely 26 -3.3 24 -4.4 92 92 NW 23 37 29.60 1002 1 2 0.02 0.51
2:53 am 02:53 Windy with Snow Likely 25 -3.9 23 -5 92 92 NW 25 41 29.57 1001 1 2 0.02 0.51
3:25 am 03:25 Windy with Snow Likely 24 -4.4 21 -6.1 88 88 NW 24 39 29.61 1003 2 2 0.00 0.03
3:42 am 03:42 Windy with Snow Likely 24 -4.4 21 -6.1 88 88 NW 22 35 29.61 1003 3 4 0.00 0.03
3:53 am 03:53 Windy with Snow Likely 23 -5 20 -6.7 88 88 NW 25 41 29.59 1002 3 5 0.00 0.03
3:59 am 03:59 Windy with Snow Likely 23 -5 19 -7.2 85 85 NW 26 43 29.63 1003 2 3 0.02 0.51
4:11 am 04:11 Windy with Snow Likely 22 -5.6 18 -7.8 85 85 NW 24 39 29.64 1004 2 3 0.02 0.51
4:22 am 04:22 Windy with Snow Likely 22 -5.6 18 -7.8 85 85 NW 23 37 29.65 1004 2 3 0.02 0.51
4:32 am 04:32 Windy with Snow Likely 21 -6.1 17 -8.3 85 85 NW 23 37 29.66 1004 2 3 0.02 0.51
4:53 am 04:53 Windy with Snow Likely 20 -6.7 17 -8.3 89 89 NW 24 39 29.64 1004 2 3 0.02 0.51
5:08 am 05:08 Windy with Snow Likely 20 -6.7 16 -8.9 85 85 NW 25 41 29.68 1005 3 5 0.00 0.03
5:33 am 05:33 Cloudy with Blowing Snow 20 -6.7 16 -8.9 85 85 NW 25 41 29.70 1006 4 6 0.00 0.03
5:53 am 05:53 Cloudy with Mist and Fog 20 -6.7 15 -9.4 81 81 WNW 22 35 29.67 1005 5 8 0.00 0.03
6:27 am 06:27 Cloudy with Mist and Fog 18 -7.8 13 -10.6 81 81 WNW 20 31 29.73 1007 4 6 0.00 0.00
6:53 am 06:53 Cloudy with Blowing Snow 16 -8.9 11 -11.7 80 80 WNW 22 35 29.72 1006 5 8 0.00 0.03
7:02 am 07:02 Cloudy with Blowing Snow 16 -8.9 10 -12.2 77 77 WNW 22 35 29.77 1008 6 10 0.00 0.00
7:53 am 07:53 Cloudy with Blowing Snow 13 -10.6 8 -13.3 81 81 WNW 21 33 29.78 1008 4 6 0.00 0.00
8:53 am 08:53 Mostly Cloudy with Blowing Snow 13 -10.6 6 -14.4 74 74 NW 25 41 29.81 1009 6 10 0.00 0.00
9:23 am 09:23 Partly Cloudy with Blowing Snow 14 -10 7 -13.9 73 73 NW 24 39 29.87 1012 6 10 0.00 0.00
9:53 am 09:53 Partly Cloudy with Blowing Snow 15 -9.4 7 -13.9 70 70 WNW 24 39 29.83 1010 6 10 0.00 0.00
10:53 am 10:53 Mostly Cloudy with Blowing Snow 17 -8.3 8 -13.3 68 68 WNW 32 52 29.87 1012 5 8 0.00 0.00
11:53 am 11:53 Mostly Cloudy with Blowing Snow 17 -8.3 8 -13.3 68 68 WNW 25 41 29.91 1013 6 10 0.00 0.00
12:53 pm 12:53 Mostly Cloudy with Blowing Snow 16 -8.9 7 -13.9 67 67 WNW 26 43 29.95 1014 6 10 0.00 0.00
1:53 pm 13:53 Partly Cloudy with Blowing Snow 15 -9.4 5 -15 64 64 WNW 25 41 29.99 1016 6 10 0.00 0.00
2:53 pm 14:53 Partly Cloudy with Blowing Snow 13 -10.6 4 -15.6 67 67 WNW 29 46 30.04 1017 10 16 0.00 0.00
3:53 pm 15:53 Partly Cloudy with Blowing Snow 11 -11.7 1 -17.2 64 64 W 24 39 30.08 1019 8 13 0.01 0.25
4:53 pm 16:53 Mostly Sunny 9 -12.8 -1 -18.3 64 64 WNW 20 31 30.13 1020 9 14 0.00 0.00
5:53 pm 17:53 Sunny 5 -15 -3 -19.4 69 69 WNW 23 37 30.18 1022 10 16 0.00 0.00
6:53 pm 18:53 Clear 4 -15.6 -5 -20.6 66 66 WNW 21 33 30.22 1024 10 16 0.00 0.00
7:53 pm 19:53 Clear 2 -16.7 -6 -21.1 69 69 WNW 18 30 30.25 1024 10 16 0.00 0.00
8:53 pm 20:53 Clear 2 -16.7 -8 -22.2 63 63 WNW 17 28 30.28 1026 10 16 0.00 0.00
9:53 pm 21:53 Clear 1 -17.2 -9 -22.8 62 62 WNW 16 26 30.33 1027 10 16 0.00 0.00
10:53 pm 22:53 Clear -1 -18.3 -11 -23.9 62 62 WNW 13 20 30.35 1028 10 16 0.00 0.00
11:53 pm 23:53 Clear -2 -18.9 -10 -23.3 68 68 WNW 14 22 30.38 1029 10 16 0.00 0.00

Powered by AerisWeather